Time,TemperatureF,DewpointF,PressureIn,WindDirection,WindDirectionDegrees,WindSpeedMPH,WindSpeedGustMPH,Humidity,HourlyPrecipIn,Conditions,Clouds,dailyrainin,SoftwareType,DateUTC
2013-03-22 00:00:00,25.7,3.6,29.64,North,-999,-999.0,-999.0,38,0.00,,,0.00,meteohub,2013-03-22 04:00:00,
2013-03-22 00:05:00,25.7,3.6,29.64,North,-999,-999.0,-999.0,38,0.00,,,0.00,meteohub,2013-03-22 04:05:00,
2013-03-22 00:10:00,25.7,4.1,29.64,North,-999,-999.0,-999.0,39,0.00,,,0.00,meteohub,2013-03-22 04:10:00,
2013-03-22 00:15:00,25.5,3.9,29.64,North,-999,-999.0,-999.0,39,0.00,,,0.00,meteohub,2013-03-22 04:15:00,
2013-03-22 00:20:00,25.5,3.9,29.64,North,-999,-999.0,-999.0,39,0.00,,,0.00,meteohub,2013-03-22 04:20:00,
2013-03-22 00:25:00,25.5,3.9,29.64,North,-999,-999.0,-999.0,39,0.00,,,0.00,meteohub,2013-03-22 04:25:00,
2013-03-22 00:30:00,25.5,3.9,29.64,North,-999,-999.0,-999.0,39,0.00,,,0.00,meteohub,2013-03-22 04:30:00,
2013-03-22 00:35:00,25.5,4.5,29.64,North,-999,-999.0,-999.0,40,0.00,,,0.00,meteohub,2013-03-22 04:35:00,
2013-03-22 00:40:00,25.5,4.5,29.64,North,-999,-999.0,-999.0,40,0.00,,,0.00,meteohub,2013-03-22 04:40:00,
2013-03-22 00:45:00,25.3,4.5,29.64,North,-999,-999.0,-999.0,40,0.00,,,0.00,meteohub,2013-03-22 04:45:00,
2013-03-22 00:50:00,25.3,5.0,29.64,North,-999,-999.0,-999.0,41,0.00,,,0.00,meteohub,2013-03-22 04:50:00,
2013-03-22 00:55:00,25.3,5.0,29.64,North,-999,-999.0,-999.0,41,0.00,,,0.00,meteohub,2013-03-22 04:55:00,
2013-03-22 01:00:00,25.3,5.0,29.64,North,-999,-999.0,-999.0,41,0.00,,,0.00,meteohub,2013-03-22 05:00:00,
2013-03-22 01:05:00,25.3,5.0,29.64,North,-999,-999.0,-999.0,41,0.00,,,0.00,meteohub,2013-03-22 05:05:00,
2013-03-22 01:10:00,25.2,4.8,29.64,North,-999,-999.0,-999.0,41,0.00,,,0.00,meteohub,2013-03-22 05:10:00,
2013-03-22 01:15:00,25.0,4.6,29.64,North,-999,-999.0,-999.0,41,0.00,,,0.00,meteohub,2013-03-22 05:15:00,
2013-03-22 01:20:00,24.8,5.0,29.64,North,-999,-999.0,-999.0,42,0.00,,,0.00,meteohub,2013-03-22 05:20:00,
2013-03-22 01:25:00,24.6,4.8,29.64,North,-999,-999.0,-999.0,42,0.00,,,0.00,meteohub,2013-03-22 05:25:00,
2013-03-22 01:30:00,24.6,4.8,29.64,North,-999,-999.0,-999.0,42,0.00,,,0.00,meteohub,2013-03-22 05:30:00,
2013-03-22 01:35:00,24.4,4.6,29.64,North,-999,-999.0,-999.0,42,0.00,,,0.00,meteohub,2013-03-22 05:35:00,
2013-03-22 01:40:00,24.4,4.6,29.64,North,-999,-999.0,-999.0,42,0.00,,,0.00,meteohub,2013-03-22 05:40:00,
2013-03-22 01:46:00,24.3,4.5,29.64,NW,308,0.0,0.0,42,0.00,,,0.00,meteohub,2013-03-22 05:46:00,
2013-03-22 01:50:00,24.3,4.5,29.64,North,-999,-999.0,0.0,42,0.00,,,0.00,meteohub,2013-03-22 05:50:00,
2013-03-22 01:55:00,24.1,4.3,29.67,North,-999,-999.0,0.0,42,0.00,,,0.00,meteohub,2013-03-22 05:55:00,
2013-03-22 02:00:00,23.9,4.1,29.67,North,-999,-999.0,-999.0,42,0.00,,,0.00,meteohub,2013-03-22 06:00:00,
2013-03-22 02:05:00,23.7,3.9,29.67,North,-999,-999.0,-999.0,42,0.00,,,0.00,meteohub,2013-03-22 06:05:00,
2013-03-22 02:10:00,23.5,3.7,29.67,North,-999,-999.0,-999.0,42,0.00,,,0.00,meteohub,2013-03-22 06:10:00,
2013-03-22 02:16:00,23.5,4.3,29.67,North,-999,-999.0,-999.0,43,0.00,,,0.00,meteohub,2013-03-22 06:16:00,
2013-03-22 02:21:00,23.4,3.6,29.67,North,-999,-999.0,-999.0,42,0.00,,,0.00,meteohub,2013-03-22 06:21:00,
2013-03-22 02:26:00,23.2,3.9,29.67,North,-999,-999.0,-999.0,43,0.00,,,0.00,meteohub,2013-03-22 06:26:00,
2013-03-22 02:31:00,23.2,3.9,29.67,North,-999,-999.0,-999.0,43,0.00,,,0.00,meteohub,2013-03-22 06:31:00,
2013-03-22 02:36:00,23.0,3.9,29.67,North,-999,-999.0,-999.0,43,0.00,,,0.00,meteohub,2013-03-22 06:36:00,
2013-03-22 02:41:00,23.0,3.9,29.67,North,-999,-999.0,-999.0,43,0.00,,,0.00,meteohub,2013-03-22 06:41:00,
2013-03-22 02:46:00,22.8,3.7,29.67,North,-999,-999.0,-999.0,43,0.00,,,0.00,meteohub,2013-03-22 06:46:00,
2013-03-22 02:51:00,22.6,3.6,29.67,North,-999,-999.0,-999.0,43,0.00,,,0.00,meteohub,2013-03-22 06:51:00,
2013-03-22 02:56:00,22.5,3.4,29.67,North,-999,-999.0,-999.0,43,0.00,,,0.00,meteohub,2013-03-22 06:56:00,
2013-03-22 03:01:00,22.3,3.2,29.67,North,-999,-999.0,-999.0,43,0.00,,,0.00,meteohub,2013-03-22 07:01:00,
2013-03-22 03:06:00,21.9,2.8,29.67,North,-999,-999.0,-999.0,43,-99.99,,,0.00,meteohub,2013-03-22 07:06:00,
2013-03-22 03:11:00,21.7,2.7,29.64,North,-999,-999.0,-999.0,43,-99.99,,,0.00,meteohub,2013-03-22 07:11:00,
2013-03-22 03:16:00,21.4,2.3,29.64,North,-999,-999.0,-999.0,43,-99.99,,,0.00,meteohub,2013-03-22 07:16:00,
2013-03-22 03:22:00,21.4,2.3,29.64,North,-999,-999.0,-999.0,43,-99.99,,,0.00,meteohub,2013-03-22 07:22:00,
2013-03-22 03:27:00,21.2,2.7,29.64,North,-999,-999.0,-999.0,44,-99.99,,,0.00,meteohub,2013-03-22 07:27:00,
2013-03-22 03:32:00,21.2,2.7,29.64,North,-999,-999.0,-999.0,44,-99.99,,,0.00,meteohub,2013-03-22 07:32:00,
2013-03-22 03:37:00,21.0,2.5,29.64,North,-999,-999.0,-999.0,44,-99.99,,,0.00,meteohub,2013-03-22 07:37:00,
2013-03-22 03:42:00,20.7,2.1,29.64,North,-999,-999.0,-999.0,44,-99.99,,,0.00,meteohub,2013-03-22 07:42:00,
2013-03-22 03:47:00,20.5,1.9,29.64,North,-999,-999.0,-999.0,44,-99.99,,,0.00,meteohub,2013-03-22 07:47:00,
2013-03-22 03:52:00,20.3,1.9,29.64,North,-999,-999.0,-999.0,44,-99.99,,,0.00,meteohub,2013-03-22 07:52:00,
2013-03-22 03:57:00,19.4,1.0,29.64,North,-999,-999.0,-999.0,44,-99.99,,,0.00,meteohub,2013-03-22 07:57:00,
2013-03-22 04:02:00,19.0,0.7,29.64,North,-999,-999.0,-999.0,44,-99.99,,,0.00,meteohub,2013-03-22 08:02:00,
2013-03-22 04:07:00,18.9,0.5,29.64,North,-999,-999.0,-999.0,44,-99.99,,,0.00,meteohub,2013-03-22 08:07:00,
2013-03-22 04:12:00,18.5,0.1,29.64,North,-999,-999.0,-999.0,44,-99.99,,,0.00,meteohub,2013-03-22 08:12:00,
2013-03-22 04:17:00,18.7,0.9,29.64,North,-999,-999.0,-999.0,45,-99.99,,,0.00,meteohub,2013-03-22 08:17:00,
2013-03-22 04:22:00,18.5,0.7,29.64,North,-999,-999.0,-999.0,45,-99.99,,,0.00,meteohub,2013-03-22 08:22:00,
2013-03-22 04:27:00,18.5,0.7,29.64,North,-999,-999.0,-999.0,45,-99.99,,,0.00,meteohub,2013-03-22 08:27:00,
2013-03-22 04:32:00,18.3,0.5,29.64,North,-999,-999.0,-999.0,45,-99.99,,,0.00,meteohub,2013-03-22 08:32:00,
2013-03-22 04:37:00,18.3,0.5,29.67,North,-999,-999.0,-999.0,45,-99.99,,,0.00,meteohub,2013-03-22 08:37:00,
2013-03-22 04:42:00,18.3,0.5,29.67,North,-999,-999.0,-999.0,45,-99.99,,,0.00,meteohub,2013-03-22 08:42:00,
2013-03-22 04:47:00,18.0,0.1,29.67,North,-999,-999.0,-999.0,45,-99.99,,,0.00,meteohub,2013-03-22 08:47:00,
2013-03-22 04:52:00,17.8,0.0,29.67,North,-999,-999.0,-999.0,45,-99.99,,,0.00,meteohub,2013-03-22 08:52:00,
2013-03-22 04:57:00,17.4,0.1,29.67,North,-999,-999.0,-999.0,46,-99.99,,,0.00,meteohub,2013-03-22 08:57:00,
2013-03-22 05:02:00,17.4,0.1,29.67,North,-999,-999.0,-999.0,46,-99.99,,,0.00,meteohub,2013-03-22 09:02:00,
2013-03-22 05:07:00,17.4,0.1,29.67,North,-999,-999.0,-999.0,46,-99.99,,,0.00,meteohub,2013-03-22 09:07:00,
2013-03-22 05:12:00,17.2,0.0,29.67,North,-999,-999.0,-999.0,46,-99.99,,,0.00,meteohub,2013-03-22 09:12:00,
2013-03-22 05:16:00,17.1,-0.2,29.67,North,-999,-999.0,-999.0,46,-99.99,,,0.00,meteohub,2013-03-22 09:16:00,
2013-03-22 05:17:00,17.1,-0.2,29.67,North,-999,-999.0,-999.0,46,-99.99,,,0.00,meteohub,2013-03-22 09:17:00,
2013-03-22 05:22:00,16.9,-0.4,29.64,North,-999,-999.0,-999.0,46,-99.99,,,0.00,meteohub,2013-03-22 09:22:00,
2013-03-22 05:31:00,16.7,-0.6,29.64,North,-999,-999.0,-999.0,46,-99.99,,,0.00,meteohub,2013-03-22 09:31:00,
2013-03-22 05:37:00,16.7,0.0,29.64,North,-999,-999.0,-999.0,47,-99.99,,,0.00,meteohub,2013-03-22 09:37:00,
2013-03-22 05:42:00,16.3,-0.4,29.64,North,-999,-999.0,-999.0,47,-99.99,,,0.00,meteohub,2013-03-22 09:42:00,
2013-03-22 05:47:00,15.4,-1.1,29.64,North,-999,-999.0,-999.0,47,-99.99,,,0.00,meteohub,2013-03-22 09:47:00,
2013-03-22 05:52:00,15.3,-1.3,29.67,North,-999,-999.0,-999.0,47,-99.99,,,0.00,meteohub,2013-03-22 09:52:00,
2013-03-22 05:57:00,15.3,-1.3,29.67,North,-999,-999.0,-999.0,47,-99.99,,,0.00,meteohub,2013-03-22 09:57:00,
2013-03-22 06:02:00,15.1,-1.5,29.67,North,-999,-999.0,-999.0,47,-99.99,,,0.00,meteohub,2013-03-22 10:02:00,
2013-03-22 06:07:00,14.9,-1.7,29.64,North,-999,-999.0,-999.0,47,-99.99,,,0.00,meteohub,2013-03-22 10:07:00,
2013-03-22 06:12:00,14.7,-1.8,29.64,North,-999,-999.0,-999.0,47,-99.99,,,0.00,meteohub,2013-03-22 10:12:00,
2013-03-22 06:17:00,14.7,-1.8,29.64,North,-999,-999.0,-999.0,47,-99.99,,,0.00,meteohub,2013-03-22 10:17:00,
2013-03-22 06:22:00,14.7,-1.8,29.64,North,-999,-999.0,-999.0,47,-99.99,,,0.00,meteohub,2013-03-22 10:22:00,
2013-03-22 06:27:00,14.9,-1.7,29.64,North,-999,-999.0,-999.0,47,-99.99,,,0.00,meteohub,2013-03-22 10:27:00,
2013-03-22 06:32:00,14.7,-1.8,29.64,North,-999,-999.0,-999.0,47,-99.99,,,0.00,meteohub,2013-03-22 10:32:00,
2013-03-22 06:37:00,14.2,-2.4,29.67,North,-999,-999.0,-999.0,47,-99.99,,,0.00,meteohub,2013-03-22 10:37:00,
2013-03-22 06:42:00,14.2,-2.4,29.67,North,-999,-999.0,-999.0,47,-99.99,,,0.00,meteohub,2013-03-22 10:42:00,
2013-03-22 06:47:00,14.0,-2.0,29.67,North,-999,-999.0,-999.0,48,-99.99,,,0.00,meteohub,2013-03-22 10:47:00,
2013-03-22 06:52:00,14.0,-2.0,29.67,WNW,297,0.0,0.0,48,-99.99,,,0.00,meteohub,2013-03-22 10:52:00,
2013-03-22 06:57:00,14.0,-2.0,29.67,WNW,297,0.0,0.0,48,-99.99,,,0.00,meteohub,2013-03-22 10:57:00,
2013-03-22 07:02:00,14.2,-1.8,29.67,WNW,297,0.0,0.0,48,0.00,,,0.00,meteohub,2013-03-22 11:02:00,
2013-03-22 07:07:00,13.1,-2.9,29.67,WNW,293,0.0,0.0,48,0.00,,,0.00,meteohub,2013-03-22 11:07:00,
2013-03-22 07:12:00,13.1,-2.9,29.67,WNW,291,0.0,0.0,48,0.00,,,0.00,meteohub,2013-03-22 11:12:00,
2013-03-22 07:17:00,13.3,-2.7,29.67,SSW,207,0.0,0.0,48,0.00,,,0.00,meteohub,2013-03-22 11:17:00,
2013-03-22 07:22:00,13.5,-2.6,29.67,South,191,0.0,0.0,48,0.00,,,0.00,meteohub,2013-03-22 11:22:00,
2013-03-22 07:27:00,13.8,-2.2,29.67,South,191,0.0,0.0,48,0.00,,,0.00,meteohub,2013-03-22 11:27:00,
2013-03-22 07:34:00,15.4,-0.4,29.67,South,191,0.0,0.0,49,0.00,,,0.00,meteohub,2013-03-22 11:34:00,
2013-03-22 07:39:00,16.3,0.1,29.67,NW,326,0.0,0.0,48,0.00,,,0.00,meteohub,2013-03-22 11:39:00,
2013-03-22 07:44:00,17.2,0.9,29.67,NW,326,0.0,0.0,48,0.00,,,0.00,meteohub,2013-03-22 11:44:00,
2013-03-22 07:49:00,17.1,0.7,29.67,NW,326,0.0,0.0,48,0.00,,,0.00,meteohub,2013-03-22 11:49:00,
2013-03-22 07:54:00,17.6,1.2,29.67,NW,326,0.0,0.0,48,0.00,,,0.00,meteohub,2013-03-22 11:54:00,
2013-03-22 07:59:00,18.5,2.1,29.67,SE,138,3.0,0.0,48,0.00,,,0.00,meteohub,2013-03-22 11:59:00,
2013-03-22 08:04:00,19.0,2.7,29.67,SE,141,0.0,4.0,48,0.00,,,0.00,meteohub,2013-03-22 12:04:00,
2013-03-22 08:09:00,19.9,3.4,29.67,SE,132,0.0,4.0,48,0.00,,,0.00,meteohub,2013-03-22 12:09:00,
2013-03-22 08:14:00,20.3,3.7,29.67,SE,132,0.0,4.0,48,0.00,,,0.00,meteohub,2013-03-22 12:14:00,
2013-03-22 08:19:00,20.8,4.3,29.67,SE,134,4.0,0.0,48,0.00,,,0.00,meteohub,2013-03-22 12:19:00,
2013-03-22 08:24:00,21.2,4.1,29.67,SE,134,3.0,0.0,47,0.00,,,0.00,meteohub,2013-03-22 12:24:00,
2013-03-22 08:29:00,21.6,4.5,29.67,SE,136,0.0,0.0,47,0.00,,,0.00,meteohub,2013-03-22 12:29:00,
2013-03-22 08:34:00,22.6,5.4,29.67,SE,138,0.0,4.0,47,0.00,,,0.00,meteohub,2013-03-22 12:34:00,
2013-03-22 08:39:00,22.6,5.0,29.67,SE,128,5.0,5.0,46,0.00,,,0.00,meteohub,2013-03-22 12:39:00,
2013-03-22 08:44:00,23.2,5.0,29.67,SE,128,3.0,5.0,45,0.00,,,0.00,meteohub,2013-03-22 12:44:00,
2013-03-22 08:49:00,24.3,6.4,29.67,ESE,122,3.0,5.0,46,0.00,,,0.00,meteohub,2013-03-22 12:49:00,
2013-03-22 08:54:00,24.8,7.0,29.67,SE,127,0.0,5.0,46,0.00,,,0.00,meteohub,2013-03-22 12:54:00,
2013-03-22 08:59:00,25.3,7.0,29.67,SE,127,3.0,5.0,45,0.00,,,0.00,meteohub,2013-03-22 12:59:00,
2013-03-22 09:04:00,25.3,6.4,29.67,SE,127,3.0,4.0,44,0.00,,,0.00,meteohub,2013-03-22 13:04:00,
2013-03-22 09:09:00,25.2,5.7,29.70,SE,132,4.0,4.0,43,0.00,,,0.00,meteohub,2013-03-22 13:09:00,
2013-03-22 09:14:00,25.0,5.7,29.70,SE,132,5.0,5.0,43,0.00,,,0.00,meteohub,2013-03-22 13:14:00,
2013-03-22 09:19:00,25.0,5.7,29.70,SE,124,4.0,5.0,43,0.00,,,0.00,meteohub,2013-03-22 13:19:00,
2013-03-22 09:24:00,25.5,6.1,29.70,SE,124,4.0,5.0,43,0.00,,,0.00,meteohub,2013-03-22 13:24:00,
2013-03-22 09:30:00,25.9,6.4,29.70,SE,124,5.0,5.0,43,0.00,,,0.00,meteohub,2013-03-22 13:30:00,
2013-03-22 09:35:00,25.7,6.3,29.70,ESE,122,4.0,5.0,43,0.00,,,0.00,meteohub,2013-03-22 13:35:00,
2013-03-22 09:40:00,26.1,6.6,29.70,ESE,118,5.0,5.0,43,0.00,,,0.00,meteohub,2013-03-22 13:40:00,
2013-03-22 09:45:00,26.8,6.8,29.70,ESE,116,5.0,5.0,42,0.00,,,0.00,meteohub,2013-03-22 13:45:00,
2013-03-22 09:50:00,26.6,6.6,29.70,ESE,115,6.0,6.0,42,0.00,,,0.00,meteohub,2013-03-22 13:50:00,
2013-03-22 09:55:00,26.8,6.8,29.67,ESE,120,8.0,8.0,42,0.00,,,0.00,meteohub,2013-03-22 13:55:00,
2013-03-22 10:00:00,27.0,7.0,29.67,ESE,103,3.0,8.0,42,0.00,,,0.00,meteohub,2013-03-22 14:00:00,
2013-03-22 10:05:00,27.1,6.6,29.67,ESE,123,7.0,8.0,41,0.00,,,0.00,meteohub,2013-03-22 14:05:00,
2013-03-22 10:10:00,27.7,7.0,29.67,North,-999,-999.0,8.0,41,0.00,,,0.00,meteohub,2013-03-22 14:10:00,
2013-03-22 10:15:00,27.9,7.2,29.67,ESE,123,6.0,7.0,41,0.00,,,0.00,meteohub,2013-03-22 14:15:00,
2013-03-22 10:20:00,27.1,6.6,29.67,ESE,102,5.0,7.0,41,0.00,,,0.00,meteohub,2013-03-22 14:20:00,
2013-03-22 10:25:00,28.6,7.9,29.67,SE,128,7.0,7.0,41,0.00,,,0.00,meteohub,2013-03-22 14:25:00,
2013-03-22 10:30:00,29.5,8.6,29.67,ESE,114,6.0,8.0,41,0.00,,,0.00,meteohub,2013-03-22 14:30:00,
2013-03-22 10:35:00,28.9,8.2,29.67,ESE,103,4.0,8.0,41,0.00,,,0.00,meteohub,2013-03-22 14:35:00,
2013-03-22 10:40:00,29.3,7.9,29.67,North,-999,-999.0,8.0,40,0.00,,,0.00,meteohub,2013-03-22 14:40:00,
2013-03-22 10:45:00,30.7,9.3,29.67,NNW,327,0.0,6.0,40,0.00,,,0.00,meteohub,2013-03-22 14:45:00,
2013-03-22 10:50:00,30.2,7.0,29.67,North,-999,-999.0,5.0,37,0.00,,,0.00,meteohub,2013-03-22 14:50:00,
2013-03-22 10:55:00,30.4,6.6,29.67,NNW,341,3.0,5.0,36,0.00,,,0.00,meteohub,2013-03-22 14:55:00,
2013-03-22 11:00:00,31.8,8.4,29.67,SW,222,0.0,5.0,37,0.00,,,0.00,meteohub,2013-03-22 15:00:00,
2013-03-22 11:05:00,31.3,7.3,29.67,NW,321,2.0,6.0,36,0.00,,,0.00,meteohub,2013-03-22 15:05:00,
2013-03-22 11:10:00,31.5,7.0,29.67,NNW,334,5.0,6.0,35,0.00,,,0.00,meteohub,2013-03-22 15:10:00,
2013-03-22 11:15:00,30.7,5.7,29.67,North,353,4.0,6.0,34,0.00,,,0.00,meteohub,2013-03-22 15:15:00,
2013-03-22 11:20:00,30.7,5.7,29.67,North,353,0.0,6.0,34,0.00,,,0.00,meteohub,2013-03-22 15:20:00,
2013-03-22 11:25:00,31.1,6.6,29.67,North,357,5.0,5.0,35,0.00,,,0.00,meteohub,2013-03-22 15:25:00,
2013-03-22 11:30:00,31.6,7.2,29.67,NW,319,0.0,8.0,35,0.00,,,0.00,meteohub,2013-03-22 15:30:00,
2013-03-22 11:35:00,31.6,6.4,29.67,NNW,328,4.0,8.0,34,0.00,,,0.00,meteohub,2013-03-22 15:35:00,
2013-03-22 11:40:00,32.9,8.2,29.67,ESE,105,0.0,8.0,35,0.00,,,0.00,meteohub,2013-03-22 15:40:00,
2013-03-22 11:45:00,33.3,8.6,29.67,NNW,331,8.0,8.0,35,0.00,,,0.00,meteohub,2013-03-22 15:45:00,
2013-03-22 11:50:00,33.8,8.4,29.67,SSW,213,4.0,8.0,34,0.00,,,0.00,meteohub,2013-03-22 15:50:00,
2013-03-22 11:55:00,34.0,7.9,29.67,NNW,345,6.0,8.0,33,0.00,,,0.00,meteohub,2013-03-22 15:55:00,
2013-03-22 12:00:00,33.8,7.7,29.67,NNW,331,5.0,8.0,33,0.00,,,0.00,meteohub,2013-03-22 16:00:00,
2013-03-22 12:05:00,33.8,8.4,29.67,North,349,6.0,8.0,34,0.00,,,0.00,meteohub,2013-03-22 16:05:00,
2013-03-22 12:10:00,34.3,8.2,29.67,SSW,211,0.0,8.0,33,0.00,,,0.00,meteohub,2013-03-22 16:10:00,
2013-03-22 12:15:00,33.6,8.2,29.67,NNW,334,6.0,11.0,34,0.00,,,0.00,meteohub,2013-03-22 16:15:00,
2013-03-22 12:20:00,34.2,8.1,29.67,NW,308,4.0,13.0,33,0.00,,,0.00,meteohub,2013-03-22 16:20:00,
2013-03-22 12:25:00,33.8,7.7,29.67,NNW,329,6.0,13.0,33,0.00,,,0.00,meteohub,2013-03-22 16:25:00,
2013-03-22 12:30:00,34.2,8.1,29.67,NNW,342,6.0,13.0,33,0.00,,,0.00,meteohub,2013-03-22 16:30:00,
2013-03-22 12:35:00,35.1,8.8,29.67,NNW,337,10.0,13.0,33,0.00,,,0.00,meteohub,2013-03-22 16:35:00,
2013-03-22 12:40:00,35.2,9.0,29.67,NNW,333,4.0,14.0,33,0.00,,,0.00,meteohub,2013-03-22 16:40:00,
2013-03-22 12:45:00,36.0,9.0,29.67,North,6,0.0,14.0,32,0.00,,,0.00,meteohub,2013-03-22 16:45:00,
2013-03-22 12:50:00,37.0,9.9,29.67,North,353,3.0,14.0,32,0.00,,,0.00,meteohub,2013-03-22 16:50:00,
2013-03-22 12:55:00,36.7,9.0,29.67,NNW,337,3.0,9.0,31,0.00,,,0.00,meteohub,2013-03-22 16:55:00,
2013-03-22 13:00:00,36.5,8.8,29.67,South,172,4.0,11.0,31,0.00,,,0.00,meteohub,2013-03-22 17:00:00,
2013-03-22 13:05:00,36.3,8.6,29.67,NNW,327,3.0,11.0,31,0.00,,,0.00,meteohub,2013-03-22 17:05:00,
2013-03-22 13:10:00,36.0,9.0,29.67,North,353,5.0,11.0,32,0.00,,,0.00,meteohub,2013-03-22 17:10:00,
2013-03-22 13:15:00,35.4,7.7,29.67,SSW,201,9.0,10.0,31,0.00,,,0.00,meteohub,2013-03-22 17:15:00,
2013-03-22 13:20:00,36.0,8.2,29.67,NNW,335,5.0,11.0,31,0.00,,,0.00,meteohub,2013-03-22 17:20:00,
2013-03-22 13:25:00,35.6,7.9,29.67,WNW,297,4.0,11.0,31,0.00,,,0.00,meteohub,2013-03-22 17:25:00,
2013-03-22 13:30:00,35.1,7.5,29.67,NNW,328,8.0,9.0,31,0.00,,,0.00,meteohub,2013-03-22 17:30:00,
2013-03-22 13:35:00,35.4,8.4,29.67,North,353,5.0,8.0,32,0.00,,,0.00,meteohub,2013-03-22 17:35:00,
2013-03-22 13:40:00,35.4,8.4,29.67,NNW,340,5.0,8.0,32,0.00,,,0.00,meteohub,2013-03-22 17:40:00,
2013-03-22 13:45:00,35.6,8.6,29.67,West,280,5.0,8.0,32,0.00,,,0.00,meteohub,2013-03-22 17:45:00,
2013-03-22 13:50:00,35.2,8.2,29.67,NW,322,5.0,11.0,32,0.00,,,0.00,meteohub,2013-03-22 17:50:00,
2013-03-22 13:55:00,35.1,8.2,29.67,NNW,345,6.0,11.0,32,0.00,,,0.00,meteohub,2013-03-22 17:55:00,
2013-03-22 14:00:00,36.1,9.1,29.67,NNW,340,4.0,11.0,32,0.00,,,0.00,meteohub,2013-03-22 18:00:00,
2013-03-22 14:05:00,36.7,9.5,29.67,NNW,343,8.0,11.0,32,0.00,,,0.00,meteohub,2013-03-22 18:05:00,
2013-03-22 14:10:00,36.5,9.5,29.64,NW,317,6.0,11.0,32,0.00,,,0.00,meteohub,2013-03-22 18:10:00,
2013-03-22 14:15:00,36.5,8.8,29.64,NNW,334,3.0,10.0,31,0.00,,,0.00,meteohub,2013-03-22 18:15:00,
2013-03-22 14:20:00,36.3,9.3,29.64,NNW,343,7.0,10.0,32,0.00,,,0.00,meteohub,2013-03-22 18:20:00,
2013-03-22 14:25:00,36.5,9.5,29.64,NW,306,5.0,10.0,32,0.00,,,0.00,meteohub,2013-03-22 18:25:00,
2013-03-22 14:30:00,35.8,8.1,29.64,NW,318,11.0,11.0,31,0.00,,,0.00,meteohub,2013-03-22 18:30:00,
2013-03-22 14:35:00,36.0,9.0,29.64,NNW,331,3.0,11.0,32,0.00,,,0.00,meteohub,2013-03-22 18:35:00,
2013-03-22 14:40:00,35.6,7.9,29.64,NE,38,2.0,11.0,31,0.00,,,0.00,meteohub,2013-03-22 18:40:00,
2013-03-22 14:45:00,35.8,8.8,29.64,NNW,343,4.0,11.0,32,0.00,,,0.00,meteohub,2013-03-22 18:45:00,
2013-03-22 14:50:00,35.8,8.8,29.64,NNW,334,6.0,7.0,32,0.00,,,0.00,meteohub,2013-03-22 18:50:00,
2013-03-22 14:55:00,35.4,8.4,29.64,NW,320,4.0,7.0,32,0.00,,,0.00,meteohub,2013-03-22 18:55:00,
2013-03-22 15:00:00,35.6,8.6,29.64,WNW,291,5.0,7.0,32,0.00,,,0.00,meteohub,2013-03-22 19:00:00,
2013-03-22 15:05:00,35.1,8.2,29.64,North,357,9.0,9.0,32,0.00,,,0.00,meteohub,2013-03-22 19:05:00,
2013-03-22 15:10:00,34.5,7.7,29.64,North,353,11.0,11.0,32,0.00,,,0.00,meteohub,2013-03-22 19:10:00,
2013-03-22 15:15:00,34.0,7.2,29.64,NNW,337,9.0,12.0,32,0.00,,,0.00,meteohub,2013-03-22 19:15:00,
2013-03-22 15:20:00,34.9,8.6,29.64,NNW,341,8.0,12.0,33,0.00,,,0.00,meteohub,2013-03-22 19:20:00,
2013-03-22 15:25:00,34.9,8.1,29.64,NNW,348,6.0,12.0,32,0.00,,,0.00,meteohub,2013-03-22 19:25:00,
2013-03-22 15:30:00,35.6,8.6,29.64,WNW,291,6.0,11.0,32,0.00,,,0.00,meteohub,2013-03-22 19:30:00,
2013-03-22 15:35:00,35.4,9.1,29.64,NNW,337,9.0,11.0,33,0.00,,,0.00,meteohub,2013-03-22 19:35:00,
2013-03-22 15:40:00,35.6,8.6,29.64,NNE,17,5.0,11.0,32,0.00,,,0.00,meteohub,2013-03-22 19:40:00,
2013-03-22 15:45:00,36.1,9.1,29.64,NNW,333,4.0,11.0,32,0.00,,,0.00,meteohub,2013-03-22 19:45:00,
2013-03-22 15:50:00,36.5,9.5,29.64,NNW,341,0.0,11.0,32,0.00,,,0.00,meteohub,2013-03-22 19:50:00,
2013-03-22 15:55:00,36.1,8.4,29.64,NW,319,0.0,8.0,31,0.00,,,0.00,meteohub,2013-03-22 19:55:00,
2013-03-22 16:00:00,36.1,8.4,29.64,NW,311,0.0,8.0,31,0.00,,,0.00,meteohub,2013-03-22 20:00:00,
2013-03-22 16:05:00,36.5,8.8,29.64,NNW,348,0.0,8.0,31,0.00,,,0.00,meteohub,2013-03-22 20:05:00,
2013-03-22 16:10:00,36.1,8.4,29.64,North,-999,-999.0,8.0,31,0.00,,,0.00,meteohub,2013-03-22 20:10:00,
2013-03-22 16:15:00,35.8,8.1,29.64,WNW,287,3.0,5.0,31,0.00,,,0.00,meteohub,2013-03-22 20:15:00,
2013-03-22 16:20:00,35.1,8.2,29.64,North,-999,-999.0,3.0,32,0.00,,,0.00,meteohub,2013-03-22 20:20:00,
2013-03-22 16:25:00,35.1,8.2,29.64,North,-999,-999.0,3.0,32,0.00,,,0.00,meteohub,2013-03-22 20:25:00,
2013-03-22 16:30:00,35.1,8.2,29.64,North,-999,-999.0,-999.0,32,0.00,,,0.00,meteohub,2013-03-22 20:30:00,
2013-03-22 16:35:00,35.4,8.4,29.64,North,-999,-999.0,-999.0,32,0.00,,,0.00,meteohub,2013-03-22 20:35:00,
2013-03-22 16:40:00,35.8,8.8,29.64,North,-999,-999.0,-999.0,32,0.00,,,0.00,meteohub,2013-03-22 20:40:00,
2013-03-22 16:45:00,36.1,9.1,29.64,SSW,204,5.0,0.0,32,0.00,,,0.00,meteohub,2013-03-22 20:45:00,
2013-03-22 16:50:00,36.1,8.4,29.64,WNW,288,7.0,7.0,31,0.00,,,0.00,meteohub,2013-03-22 20:50:00,
2013-03-22 16:53:00,36.1,8.4,29.64,WNW,288,7.0,7.0,31,0.00,,,0.00,meteohub,2013-03-22 20:53:00,
2013-03-22 16:57:00,36.1,8.4,29.64,NNW,346,8.0,8.0,31,0.00,,,0.00,meteohub,2013-03-22 20:57:00,
2013-03-22 17:02:00,35.8,8.1,29.64,NW,307,8.0,8.0,31,0.00,,,0.00,meteohub,2013-03-22 21:02:00,
2013-03-22 17:08:00,35.4,8.4,29.64,NNW,338,3.0,8.0,32,0.00,,,0.00,meteohub,2013-03-22 21:08:00,
2013-03-22 17:13:00,34.9,8.1,29.64,WNW,298,5.0,8.0,32,0.00,,,0.00,meteohub,2013-03-22 21:13:00,
2013-03-22 17:18:00,34.5,7.7,29.64,NNW,335,3.0,5.0,32,0.00,,,0.00,meteohub,2013-03-22 21:18:00,
2013-03-22 17:23:00,34.9,8.1,29.64,NW,304,3.0,5.0,32,0.00,,,0.00,meteohub,2013-03-22 21:23:00,
2013-03-22 17:28:00,34.5,7.7,29.64,NNW,328,6.0,6.0,32,0.00,,,0.00,meteohub,2013-03-22 21:28:00,
2013-03-22 17:33:00,34.2,8.1,29.64,WNW,288,5.0,6.0,33,0.00,,,0.00,meteohub,2013-03-22 21:33:00,
2013-03-22 17:38:00,33.8,7.7,29.67,WNW,287,0.0,6.0,33,0.00,,,0.00,meteohub,2013-03-22 21:38:00,
2013-03-22 17:43:00,33.6,7.5,29.67,West,281,5.0,5.0,33,0.00,,,0.00,meteohub,2013-03-22 21:43:00,
2013-03-22 17:48:00,33.3,7.9,29.67,WSW,245,4.0,5.0,34,0.00,,,0.00,meteohub,2013-03-22 21:48:00,
2013-03-22 17:53:00,33.1,7.7,29.67,North,-999,-999.0,6.0,34,0.00,,,0.00,meteohub,2013-03-22 21:53:00,
2013-03-22 17:58:00,32.9,7.5,29.67,NW,323,0.0,6.0,34,0.00,,,0.00,meteohub,2013-03-22 21:58:00,
2013-03-22 18:03:00,32.9,7.5,29.67,SSW,213,0.0,4.0,34,0.00,,,0.00,meteohub,2013-03-22 22:03:00,
2013-03-22 18:08:00,32.7,7.5,29.67,NW,320,3.0,4.0,34,0.00,,,0.00,meteohub,2013-03-22 22:08:00,
2013-03-22 18:13:00,32.7,8.1,29.67,North,-999,-999.0,6.0,35,0.00,,,0.00,meteohub,2013-03-22 22:13:00,
2013-03-22 18:18:00,32.5,8.6,29.67,NW,305,5.0,6.0,36,0.00,,,0.00,meteohub,2013-03-22 22:18:00,
2013-03-22 18:23:00,32.4,8.4,29.67,WNW,303,6.0,6.0,36,0.00,,,0.00,meteohub,2013-03-22 22:23:00,
2013-03-22 18:28:00,32.2,8.8,29.67,WNW,301,0.0,6.0,37,0.00,,,0.00,meteohub,2013-03-22 22:28:00,
2013-03-22 18:33:00,32.2,10.0,29.67,WNW,298,0.0,6.0,39,0.00,,,0.00,meteohub,2013-03-22 22:33:00,
2013-03-22 18:38:00,32.0,10.4,29.67,NW,325,6.0,6.0,40,0.00,,,0.00,meteohub,2013-03-22 22:38:00,
2013-03-22 18:43:00,31.8,10.2,29.67,NNW,329,2.0,6.0,40,0.00,,,0.00,meteohub,2013-03-22 22:43:00,
2013-03-22 18:48:00,31.3,9.7,29.67,North,-999,-999.0,6.0,40,0.00,,,0.00,meteohub,2013-03-22 22:48:00,
2013-03-22 18:53:00,31.1,9.7,29.67,North,-999,-999.0,4.0,40,0.00,,,0.00,meteohub,2013-03-22 22:53:00,
2013-03-22 18:58:00,30.9,10.0,29.67,North,-999,-999.0,2.0,41,0.00,,,0.00,meteohub,2013-03-22 22:58:00,
2013-03-22 19:03:00,30.9,10.0,29.67,North,-999,-999.0,-999.0,41,0.00,,,0.00,meteohub,2013-03-22 23:03:00,
2013-03-22 19:08:00,30.7,9.9,29.70,NNW,339,3.0,-999.0,41,0.00,,,0.00,meteohub,2013-03-22 23:08:00,
2013-03-22 19:13:00,30.7,9.9,29.70,WNW,298,0.0,3.0,41,0.00,,,0.00,meteohub,2013-03-22 23:13:00,
2013-03-22 19:18:00,30.6,9.7,29.70,West,279,4.0,4.0,41,0.00,,,0.00,meteohub,2013-03-22 23:18:00,
2013-03-22 19:23:00,30.4,9.5,29.70,WNW,292,4.0,5.0,41,0.00,,,0.00,meteohub,2013-03-22 23:23:00,
2013-03-22 19:28:00,30.2,9.9,29.70,NW,310,3.0,5.0,42,0.00,,,0.00,meteohub,2013-03-22 23:28:00,
2013-03-22 19:33:00,30.0,9.7,29.70,WNW,283,0.0,7.0,42,0.00,,,0.00,meteohub,2013-03-22 23:33:00,
2013-03-22 19:38:00,29.8,9.5,29.70,SSW,204,3.0,7.0,42,0.00,,,0.00,meteohub,2013-03-22 23:38:00,
2013-03-22 19:43:00,29.8,10.0,29.70,NNW,337,3.0,7.0,43,0.00,,,0.00,meteohub,2013-03-22 23:43:00,
2013-03-22 19:48:00,29.7,9.9,29.70,North,-999,-999.0,7.0,43,0.00,,,0.00,meteohub,2013-03-22 23:48:00,
2013-03-22 19:53:00,29.5,9.7,29.70,North,-999,-999.0,4.0,43,0.00,,,0.00,meteohub,2013-03-22 23:53:00,
2013-03-22 19:58:00,29.3,9.5,29.70,NNW,338,3.0,4.0,43,0.00,,,0.00,meteohub,2013-03-22 23:58:00,
2013-03-22 20:03:00,29.1,9.3,29.70,North,-999,-999.0,4.0,43,0.00,,,0.00,meteohub,2013-03-23 00:03:00,
2013-03-22 20:08:00,28.9,9.3,29.70,North,-999,-999.0,4.0,43,0.00,,,0.00,meteohub,2013-03-23 00:08:00,
2013-03-22 20:13:00,28.8,9.1,29.70,North,-999,-999.0,-999.0,43,0.00,,,0.00,meteohub,2013-03-23 00:13:00,
2013-03-22 20:18:00,28.6,9.0,29.70,North,-999,-999.0,-999.0,43,0.00,,,0.00,meteohub,2013-03-23 00:18:00,
2013-03-22 20:23:00,28.8,9.7,29.70,North,-999,-999.0,-999.0,44,0.00,,,0.00,meteohub,2013-03-23 00:23:00,
2013-03-22 20:28:00,28.8,9.7,29.70,North,-999,-999.0,-999.0,44,0.00,,,0.00,meteohub,2013-03-23 00:28:00,
2013-03-22 20:33:00,28.8,9.7,29.70,North,-999,-999.0,-999.0,44,0.00,,,0.00,meteohub,2013-03-23 00:33:00,
2013-03-22 20:38:00,28.8,9.7,29.70,North,-999,-999.0,-999.0,44,0.00,,,0.00,meteohub,2013-03-23 00:38:00,
2013-03-22 20:43:00,28.8,9.7,29.70,North,-999,-999.0,-999.0,44,0.00,,,0.00,meteohub,2013-03-23 00:43:00,
2013-03-22 20:48:00,28.8,9.7,29.70,North,-999,-999.0,-999.0,44,0.00,,,0.00,meteohub,2013-03-23 00:48:00,
2013-03-22 20:54:00,28.8,9.7,29.70,North,-999,-999.0,-999.0,44,0.00,,,0.00,meteohub,2013-03-23 00:54:00,
2013-03-22 20:59:00,28.9,9.7,29.70,North,-999,-999.0,-999.0,44,0.00,,,0.00,meteohub,2013-03-23 00:59:00,
2013-03-22 21:04:00,28.8,9.1,29.70,NNW,328,8.0,8.0,43,0.00,,,0.00,meteohub,2013-03-23 01:04:00,
2013-03-22 21:09:00,28.8,9.1,29.70,North,-999,-999.0,8.0,43,0.00,,,0.00,meteohub,2013-03-23 01:09:00,
2013-03-22 21:14:00,28.6,9.0,29.70,North,-999,-999.0,8.0,43,0.00,,,0.00,meteohub,2013-03-23 01:14:00,
2013-03-22 21:19:00,28.6,9.0,-100.00,North,-999,-999.0,8.0,43,0.00,,,0.00,meteohub,2013-03-23 01:19:00,
2013-03-22 21:24:00,28.4,8.8,-100.00,North,-999,-999.0,-999.0,43,0.00,,,0.00,meteohub,2013-03-23 01:24:00,
2013-03-22 21:29:00,28.2,8.6,29.73,North,-999,-999.0,-999.0,43,0.00,,,0.00,meteohub,2013-03-23 01:29:00,
2013-03-22 21:34:00,28.0,8.4,-100.00,North,-999,-999.0,-999.0,43,0.00,,,0.00,meteohub,2013-03-23 01:34:00,
2013-03-22 21:39:00,27.9,8.2,29.73,North,-999,-999.0,-999.0,43,0.00,,,0.00,meteohub,2013-03-23 01:39:00,
2013-03-22 21:44:00,27.7,8.1,-100.00,NNW,327,5.0,-999.0,43,0.00,,,0.00,meteohub,2013-03-23 01:44:00,
2013-03-22 21:49:00,27.7,8.1,-100.00,NW,304,5.0,5.0,43,0.00,,,0.00,meteohub,2013-03-23 01:49:00,
2013-03-22 21:54:00,27.5,7.9,-100.00,WNW,294,3.0,5.0,43,0.00,,,0.00,meteohub,2013-03-23 01:54:00,
2013-03-22 21:59:00,27.1,7.5,-100.00,North,-999,-999.0,5.0,43,0.00,,,0.00,meteohub,2013-03-23 01:59:00,
2013-03-22 22:04:00,27.1,7.5,-100.00,WNW,303,3.0,3.0,43,0.00,,,0.00,meteohub,2013-03-23 02:04:00,
2013-03-22 22:09:00,27.0,7.5,-100.00,South,184,5.0,5.0,43,0.00,,,0.00,meteohub,2013-03-23 02:09:00,
2013-03-22 22:14:00,27.0,7.5,-100.00,North,-999,-999.0,8.0,43,0.00,,,0.00,meteohub,2013-03-23 02:14:00,
2013-03-22 22:19:00,27.0,7.5,-100.00,North,-999,-999.0,8.0,43,0.00,,,0.00,meteohub,2013-03-23 02:19:00,
2013-03-22 22:24:00,27.0,7.5,-100.00,North,-999,-999.0,8.0,43,0.00,,,0.00,meteohub,2013-03-23 02:24:00,
2013-03-22 22:29:00,27.0,7.5,-100.00,North,-999,-999.0,-999.0,43,0.00,,,0.00,meteohub,2013-03-23 02:29:00,
2013-03-22 22:34:00,27.0,7.5,-100.00,North,-999,-999.0,-999.0,43,0.00,,,0.00,meteohub,2013-03-23 02:34:00,
2013-03-22 22:39:00,27.0,7.5,-100.00,NW,304,5.0,6.0,43,0.00,,,0.00,meteohub,2013-03-23 02:39:00,
2013-03-22 22:44:00,27.0,7.5,-100.00,North,-999,-999.0,6.0,43,0.00,,,0.00,meteohub,2013-03-23 02:44:00,
2013-03-22 22:49:00,26.8,7.3,-100.00,North,-999,-999.0,6.0,43,0.00,,,0.00,meteohub,2013-03-23 02:49:00,
2013-03-22 22:54:00,26.6,7.7,-100.00,North,-999,-999.0,6.0,44,0.00,,,0.00,meteohub,2013-03-23 02:54:00,
2013-03-22 22:59:00,26.4,7.5,-100.00,North,-999,-999.0,-999.0,44,0.00,,,0.00,meteohub,2013-03-23 02:59:00,
2013-03-22 23:04:00,26.1,7.2,-100.00,North,-999,-999.0,-999.0,44,0.00,,,0.00,meteohub,2013-03-23 03:04:00,
2013-03-22 23:09:00,26.1,7.2,-100.00,West,276,2.0,-999.0,44,0.00,,,0.00,meteohub,2013-03-23 03:09:00,
2013-03-22 23:14:00,26.1,7.2,-100.00,North,-999,-999.0,2.0,44,0.00,,,0.00,meteohub,2013-03-23 03:14:00,
2013-03-22 23:19:00,26.1,7.2,-100.00,North,-999,-999.0,2.0,44,0.00,,,0.00,meteohub,2013-03-23 03:19:00,
2013-03-22 23:24:00,26.1,7.2,-100.00,North,353,0.0,2.0,44,0.00,,,0.00,meteohub,2013-03-23 03:24:00,
2013-03-22 23:29:00,26.1,7.2,-100.00,North,-999,-999.0,0.0,44,0.00,,,0.00,meteohub,2013-03-23 03:29:00,
2013-03-22 23:34:00,26.1,7.2,-100.00,North,-999,-999.0,0.0,44,0.00,,,0.00,meteohub,2013-03-23 03:34:00,
2013-03-22 23:39:00,26.1,7.7,-100.00,North,-999,-999.0,-999.0,45,0.00,,,0.00,meteohub,2013-03-23 03:39:00,
2013-03-22 23:44:00,26.1,7.7,-100.00,North,-999,-999.0,-999.0,45,0.00,,,0.00,meteohub,2013-03-23 03:44:00,
2013-03-22 23:49:00,25.9,7.0,-100.00,North,-999,-999.0,-999.0,44,0.00,,,0.00,meteohub,2013-03-23 03:49:00,
2013-03-22 23:54:00,25.9,7.0,-100.00,North,-999,-999.0,-999.0,44,0.00,,,0.00,meteohub,2013-03-23 03:54:00,
2013-03-22 23:59:00,25.9,7.0,-100.00,North,-999,-999.0,-999.0,44,0.00,,,0.00,meteohub,2013-03-23 03:59:00,